Location: Warszawa
(52.2322°N, 21.0083°E)
Time: 08:07:12
(UTC+02:00)

ISS - Pass Details

Date: 26 March 2019
Orbit: 408 x 410 km, 51.6° (Epoch: 24 April)

Event Time Altitude Azimuth Distance (km) Brightness Sun altitude
Rises 21:00:33 0° 272° (W) 2,337 0.7 -25.8°
Reaches altitude 10° 21:02:38 10° 271° (W) 1,475 -0.4 -26.0°
Enters shadow 21:03:36 18° 271° (W) 1,086 -1.2 -26.1°
